Hourly Data Report for October 10, 2016

All times are specified in Local Standard Time (LST). Add 1 hour to adjust for Daylight Saving Time where and when it is observed.

TORONTO INTL A
ONTARIO

43°40'36.000" N
79°37'50.000" W
173.40 m
6158731
71624
YYZ

Download Data

Hourly Data (October 2016)
Hourly Data Report for October 10, 2016
Temp Definition
°C
Dew Point Temp Definition
°C
Rel Hum Definition
%
Wind Dir Definition
10's deg

Wind Spd Definition
km/h
Visibility Definition
km
Stn Press Definition
kPa
Hmdx Definition


Wind Chill Definition


Weather Definition


TIME
00:00 Legend Double Dagger 4.9 0.9 75 35 12 24.1 100.79     LegendNANA
01:00 Legend Double Dagger 4.4 0.7 77 36 11 24.1 100.81     Clear
02:00 Legend Double Dagger 3.9 0.4 78 36 11 24.1 100.87     LegendNANA
03:00 Legend Double Dagger 3.3 0.2 80 36 13 24.1 100.87     LegendNANA
04:00 Legend Double Dagger 3.1 -0.5 77 36 12 24.1 100.90     Clear
05:00 Legend Double Dagger 2.8 -0.7 78 36 11 24.1 100.94     LegendNANA
06:00 Legend Double Dagger 2.3 -1.0 79 32 9 24.1 101.05     LegendNANA
07:00 Legend Double Dagger 2.8 -1.2 75 36 12 24.1 101.09     Mainly Clear
08:00 Legend Double Dagger 4.4 -0.6 70 36 9 24.1 101.13     LegendNANA
09:00 Legend Double Dagger 5.9 -1.0 61 2 9 24.1 101.13     LegendNANA
10:00 Legend Double Dagger 7.1 -0.6 58 33 10 24.1 101.15     Mainly Clear
11:00 Legend Double Dagger 9.1 0.3 54 33 9 24.1 101.11     LegendNANA
12:00 Legend Double Dagger 9.7 0.6 53 4 3 24.1 101.06     LegendNANA
13:00 Legend Double Dagger 11.1 -0.7 44 24 4 24.1 100.98     Clear
14:00 Legend Double Dagger 12.1 -0.1 43 27 3 24.1 100.92     LegendNANA
15:00 Legend Double Dagger 13.1 -1.2 37 29 3 24.1 100.85     LegendNANA
16:00 Legend Double Dagger 12.3 1.7 48 19 11 24.1 100.83     Clear
17:00 Legend Double Dagger 11.0 2.4 55 16 16 24.1 100.83     LegendNANA
18:00 Legend Double Dagger 9.6 2.5 61 16 7 24.1 100.85     LegendNANA
19:00 Legend Double Dagger 9.7 2.6 61 18 7 24.1 100.83     Clear
20:00 Legend Double Dagger 9.5 2.6 62 15 4 24.1 100.82     LegendNANA
21:00 Legend Double Dagger 9.3 2.9 64 17 4 24.1 100.83     LegendNANA
22:00 Legend Double Dagger 8.6 2.4 65 23 5 24.1 100.85     Clear
23:00 Legend Double Dagger 6.6 1.7 71 26 7 24.1 100.87     LegendNANA

Notes on Data Quality.

Legend

  • E = Estimated
  • M = Missing
  • NA = Not Available
  • ‡ = Partner data that is not subject to review by the National Climate Archives
Date modified: